TimeAKDT,TemperatureF,Dew PointF,Humidity,Sea Level PressureIn,VisibilityMPH,Wind Direction,Wind SpeedMPH,Gust SpeedMPH,PrecipitationIn,Events,Conditions,WindDirDegrees,DateUTC
12:13 AM,55.4,51.8,88,29.90,10.0,SE,6.9,-,N/A,,Overcast,140,2013-08-04 08:13:00
12:43 AM,55.4,51.8,88,29.90,10.0,Calm,Calm,-,N/A,,Overcast,0,2013-08-04 08:43:00
12:53 AM,55.9,52.0,87,29.90,10.0,Calm,Calm,-,0.00,Rain,Light Rain,0,2013-08-04 08:53:00
1:53 AM,55.9,52.0,87,29.90,10.0,ESE,5.8,-,0.01,Rain,Light Rain,110,2013-08-04 09:53:00
2:38 AM,55.4,51.8,88,29.90,9.0,SE,4.6,-,0.02,Rain,Light Rain,140,2013-08-04 10:38:00
2:53 AM,55.9,52.0,87,29.90,10.0,Calm,Calm,-,0.04,Rain,Light Rain,0,2013-08-04 10:53:00
3:53 AM,55.0,52.0,89,29.90,10.0,Calm,Calm,-,0.02,Rain,Light Rain,0,2013-08-04 11:53:00
4:53 AM,55.9,52.0,87,29.90,10.0,Calm,Calm,-,0.01,Rain,Light Rain,0,2013-08-04 12:53:00
5:53 AM,55.0,52.0,89,29.91,9.0,Calm,Calm,-,0.02,Rain,Light Rain,0,2013-08-04 13:53:00
6:53 AM,54.0,52.0,93,29.91,10.0,Calm,Calm,-,0.02,Rain,Light Rain,0,2013-08-04 14:53:00
7:53 AM,55.0,52.0,89,29.92,10.0,Calm,Calm,-,0.01,Rain,Light Rain,0,2013-08-04 15:53:00
8:53 AM,55.0,53.1,93,29.93,9.0,ENE,3.5,-,0.01,Rain,Light Rain,70,2013-08-04 16:53:00
9:53 AM,55.9,53.1,90,29.94,10.0,NE,3.5,-,0.00,,Mostly Cloudy,40,2013-08-04 17:53:00
10:53 AM,57.0,53.1,87,29.94,10.0,NE,4.6,-,N/A,,Mostly Cloudy,40,2013-08-04 18:53:00
11:53 AM,59.0,54.0,83,29.94,10.0,NE,4.6,-,N/A,,Mostly Cloudy,50,2013-08-04 19:53:00
12:53 PM,60.1,53.1,78,29.94,10.0,SE,5.8,-,N/A,,Mostly Cloudy,130,2013-08-04 20:53:00
1:53 PM,61.0,53.1,75,29.95,10.0,SE,8.1,-,N/A,,Mostly Cloudy,130,2013-08-04 21:53:00
2:53 PM,61.0,53.1,75,29.95,10.0,SE,11.5,-,N/A,,Mostly Cloudy,140,2013-08-04 22:53:00
3:53 PM,61.0,53.1,75,29.94,10.0,SE,11.5,-,N/A,,Mostly Cloudy,140,2013-08-04 23:53:00
4:53 PM,62.1,53.1,72,29.94,10.0,SSE,8.1,-,N/A,,Mostly Cloudy,150,2013-08-05 00:53:00
5:53 PM,63.0,52.0,67,29.94,10.0,South,6.9,-,N/A,,Mostly Cloudy,180,2013-08-05 01:53:00
6:53 PM,60.1,52.0,75,29.94,10.0,SE,9.2,-,N/A,,Mostly Cloudy,140,2013-08-05 02:53:00
7:53 PM,59.0,52.0,78,29.94,10.0,SSE,9.2,-,N/A,,Mostly Cloudy,160,2013-08-05 03:53:00
8:53 PM,59.0,51.1,75,29.94,10.0,South,8.1,-,N/A,,Mostly Cloudy,190,2013-08-05 04:53:00
9:53 PM,57.9,51.1,78,29.95,10.0,SSE,6.9,-,N/A,,Mostly Cloudy,150,2013-08-05 05:53:00
10:53 PM,57.9,51.1,78,29.95,10.0,Calm,Calm,-,N/A,,Overcast,0,2013-08-05 06:53:00
11:53 PM,57.0,51.1,81,29.96,10.0,South,4.6,-,N/A,,Mostly Cloudy,170,2013-08-05 07:53:00